Location: Casco Volunteer Fire Department
(44.5576°N, 87.6146°W)
Time: 04:25:31
(UTC+00:00)

BlueWalker 3 - Pass Details

Date: 18 March 2026
Orbit: 449 x 457 km, 53.2° (Epoch: 15 April)

Event Time Altitude Azimuth Distance (km) Brightness Sun altitude
Exits shadow 11:21:13 - 257° (WSW) 1,655 3.9 -7.2°
Reaches altitude 10° 11:21:38 10° 250° (WSW) 1,594 3.8 -7.2°
Maximum altitude 11:22:43 11° 233° (SW) 1,524 3.9 -7.0°
Drops below altitude 10° 11:23:48 10° 215° (SW) 1,589 4.1 -6.8°
Sets 11:27:17 0° 179° (S) 2,453 5.4 -6.1°
